Flag for Germany Weather past 2 weeks in Löhne, North Rhine-Westphalia, Germany

Now
68 °F

Mild.


Feels Like: 68 °F
Forecast: 54 / 75 °F
Wind: 9 mph from Southeast

Location: Bueckeburg

Current Time: Aug 1, 2015 at 12:21:17 PM

Latest Report: Aug 1, 2015 at 11:20 AM


Visibility: N/A

Pressure: 30.01 "Hg

Humidity: 43%

Dew point: 45 °F

Location of LöhneLocation

Historic Weather in Löhne — Graph

°F

Löhne temperature yesterday

Maximum temperature yesterday: 64 °F (at 3:20 PM)
Minimum temperature yesterday: 46 °F (at 4:20 AM)
Average temperature yesterday: 56 °F

Past Weeks' High & Low Weather Summary

 TemperatureHumidityPressure
High90 °F (Jul 17, 3:20 PM)100% (Jul 19, 10:20 AM)30.12 "Hg (Jul 19, 10:20 AM)
Low46 °F (Jul 31, 4:20 AM)31% (Jul 17, 4:20 PM)29.47 "Hg (Jul 25, 12:20 PM)
Average64 °F73%29.85 "Hg
* Reported Jul 17 10:20 AM — Aug 1 10:20 AM, Löhne, Weather by CustomWeather, © 2015

Note: Actual official high and low records may vary slightly from our data, if they occured in-between our weather recording intervals... More about our weather records

Advertising

Löhne weather history for previous 24 hours

 ConditionsComfort  
Time TempWeatherWind HumidityBarometerVisibility
10:20 AM
Sat, Aug 1
64 °FMild.2 mph52%30.01 "HgN/A
9:20 AM59 °FCool.1 mph68%30.04 "HgN/A
8:20 AM52 °FCool.No wind88%30.04 "HgN/A
7:20 AM48 °FCool.1 mph94%30.04 "HgN/A
6:20 AM46 °FCool.No wind93%30.04 "HgN/A
5:20 AM46 °FPassing clouds.1 mph93%30.04 "HgN/A
4:20 AM46 °FOvercast.1 mph93%30.04 "HgN/A
3:20 AM46 °FOvercast.No wind93%30.07 "HgN/A
2:20 AM46 °FPassing clouds.1 mph93%30.07 "HgN/A
1:20 AM46 °FPassing clouds.1 mph93%30.07 "HgN/A
12:20 AM48 °FPassing clouds.1 mph94%30.07 "HgN/A
11:20 PM
Fri, Jul 31
50 °FPassing clouds.No wind88%30.07 "HgN/A
10:20 PM52 °FPassing clouds.1 mph82%30.07 "HgN/A
9:20 PM57 °FPassing clouds.2 mph72%30.07 "HgN/A
8:20 PM61 °FPassing clouds.2 mph52%30.07 "HgN/A
7:20 PM63 °FBroken clouds.3 mph45%30.07 "HgN/A
6:20 PM64 °FBroken clouds.5 mph43%30.07 "HgN/A
5:20 PM64 °FBroken clouds.5 mph43%30.09 "HgN/A
4:20 PM64 °FBroken clouds.6 mph43%30.09 "HgN/A
3:20 PM64 °FScattered clouds.3 mph43%30.09 "HgN/A
2:20 PM63 °FScattered clouds.7 mph49%30.09 "HgN/A
1:20 PM63 °FScattered clouds.9 mph45%30.12 "HgN/A
12:20 PM61 °FScattered clouds.7 mph45%30.12 "HgN/A
Weather by CustomWeather, © 2015

See weather overviewHow to use our weather pages